User: anonymous
Location: Young's Pond
(41.2695°N, 72.7766°W)
Time: 05:26:47
(UTC-04:00)
Language:

Spot 4 - Orbit

View from above orbital plane
View from above orbital plane
View from above satellite
View from above satellite

Ground track
Ground track

The orbit data is extracted from the following two-line orbital elements,

1 25260U 98017A   14211.57905598  .00000210  00000-0  62133-4 0  4051
2 25260 098.4566 275.8159 0011763 262.7960 097.1900 14.52998576848969
Epoch (UTC): 30 July 2014 13:53:50
Eccentricity: 0.0011763
inclination: 98.4566°
perigee height: 707 km
apogee height: 724 km
right ascension of ascending node: 275.8159°
argument of perigee: 262.7960°
revolutions per day: 14.52998576
mean anomaly at epoch: 97.1900°
orbit number at epoch: 84896

The dashed part of the orbit path shows where the satellite is in the earth's shadow,  

DLR